CDT,Max TemperatureF,Mean TemperatureF,Min TemperatureF,Max Dew PointF,MeanDew PointF,Min DewpointF,Max Humidity, Mean Humidity, Min Humidity, Max Sea Level PressureIn, Mean Sea Level PressureIn, Min Sea Level PressureIn, Max VisibilityMiles, Mean VisibilityMiles, Min VisibilityMiles, Max Wind SpeedMPH, Mean Wind SpeedMPH, Max Gust SpeedMPH,PrecipitationIn, CloudCover, Events, WindDirDegrees
2013-5-1,79,60,41,60,48,37,80,63,46,30.22,30.03,29.81,10,8,2,25,12,33,0.33,5,Rain-Thunderstorm,23
2013-5-2,42,39,35,38,34,32,92,87,82,30.45,30.39,30.23,10,4,1,25,15,37,0.57,8,Rain-Snow,350
2013-5-3,47,42,37,36,34,30,92,75,58,30.33,30.11,29.95,10,8,3,26,15,32,0.09,8,Rain,339
2013-5-4,50,43,35,45,38,32,93,84,74,30.06,29.94,29.86,10,5,2,21,12,28,0.10,8,Rain-Snow,347
2013-5-5,55,51,46,47,45,43,93,83,72,30.16,30.10,30.06,8,4,3,16,11,20,0.00,8,,336
2013-5-6,68,57,46,54,50,46,100,80,59,30.13,30.09,30.03,8,6,2,14,7,16,0.00,5,,342
2013-5-7,76,59,41,55,47,39,100,71,41,30.11,30.06,29.97,10,4,0,12,3,16,0.00,1,Fog,200
2013-5-8,76,64,51,61,57,49,93,74,54,30.00,29.94,29.88,10,7,0,21,8,24,0.86,6,Fog-Rain-Thunderstorm,130
2013-5-9,74,64,54,61,58,55,100,79,57,29.93,29.89,29.84,10,7,2,17,7,21,0.12,4,Rain-Thunderstorm,295
2013-5-10,70,58,45,54,51,45,100,74,47,30.07,30.01,29.94,10,8,4,21,9,26,0.01,4,,339
2013-5-11,68,53,37,49,35,26,96,61,26,30.27,30.17,30.07,10,8,3,28,13,38,0.00,0,,338
2013-5-12,68,50,32,43,33,27,89,57,24,30.30,30.23,30.14,10,10,10,10,3,13,0.00,2,,308
2013-5-13,80,61,42,56,47,40,89,63,36,30.17,30.06,29.93,10,10,9,18,8,23,0.00,0,,139
2013-5-14,95,80,64,56,50,44,73,47,20,29.91,29.83,29.77,10,10,10,30,12,39,0.00,0,,207
2013-5-15,88,77,65,65,60,54,87,65,43,29.88,29.84,29.79,10,10,9,22,11,28,0.00,0,,196
2013-5-16,82,70,58,63,61,59,97,73,49,29.90,29.85,29.79,10,9,5,15,7,22,0.00,3,,152
2013-5-17,79,69,58,63,60,57,93,74,54,29.95,29.89,29.85,10,9,6,13,5,15,0.00,5,,130
2013-5-18,86,72,57,71,65,57,93,74,55,29.91,29.82,29.71,10,9,7,30,12,39,T,4,Thunderstorm,132
2013-5-19,84,73,62,70,62,57,93,77,60,29.85,29.70,29.57,10,9,2,39,11,59,0.65,4,Rain-Thunderstorm,180
2013-5-20,82,71,60,67,60,52,97,68,39,29.74,29.68,29.60,10,10,7,20,9,24,0.00,1,,187
2013-5-21,76,67,58,54,51,48,80,62,43,29.78,29.73,29.68,10,10,10,20,9,26,0.00,1,,271
2013-5-22,70,61,51,53,50,47,89,71,53,29.96,29.84,29.75,10,10,10,17,8,23,0.00,6,,306
2013-5-23,71,61,50,54,51,47,89,71,53,30.22,30.13,29.97,10,10,10,18,7,24,0.00,4,,24
2013-5-24,76,61,45,53,48,43,93,67,41,30.30,30.24,30.11,10,7,0,24,12,30,0.00,1,Fog,122
2013-5-25,85,74,63,65,59,49,79,64,48,30.14,30.07,29.98,10,10,10,23,10,33,0.00,2,,169
2013-5-26,84,76,68,68,66,64,84,71,58,30.03,29.95,29.85,10,10,9,22,13,28,0.00,4,,175
2013-5-27,83,73,63,72,64,61,93,79,65,29.92,29.81,29.65,10,7,1,26,14,35,2.02,6,Rain-Thunderstorm,118
2013-5-28,82,75,68,72,68,66,79,74,69,29.79,29.70,29.65,10,10,10,24,10,33,T,8,Rain-Thunderstorm,170
2013-5-29,81,73,65,67,65,61,87,75,62,29.78,29.70,29.61,10,10,4,30,16,40,0.07,6,Rain-Thunderstorm,157
2013-5-30,77,70,62,65,62,60,93,79,64,29.74,29.67,29.60,10,8,2,20,7,24,0.52,5,Rain-Thunderstorm,178
2013-5-31,78,69,60,67,62,57,93,80,67,29.76,29.71,29.65,10,9,1,26,6,29,0.85,5,Rain-Thunderstorm,111